Temp
14 15 15 15 15 14 14 13 13 12 13 13 13 12 12 12 12 13 13 13 12 12 12 11 11 11 11 12 12 12 12 12 12 12 11 11 11 12 12 12 12 12
14 14 15 15 14 14 13 13 12 13 13 13 12 12 13 13 13 13 13 13 13 12 12 12 11 12 12 12 12 13 13 13 12 12 12 12 12 12 12 12 12 12
13 14 15 15 14 13 12 12 12 12 13 12 12 13 13 13 13 13 13 13 13 13 13 13 12 13 13 13 13 13 13 13 13 13 12 12 12 12 12 12 12 12
13 14 14 14 13 13 12 12 12 12 12 13 13 13 13 13 13 13 13 13 13 13 13 13 13 13 13 13 13 13 13 13 13 13 13 12 12 13 13 13 13 13
13 13 13 13 13 12 12 12 12 12 13 13 13 13 14 14 14 14 13 13 13 13 13 13 13 13 13 13 13 13 13 13 13 13 13 12 12 12 12 12 13 13
13 13 13 12 12 12 12 12 12 12 12 13 13 13 14 14 14 14 13 13 13 13 13 13 13 13 13 13 13 13 13 13 12 12 13 12 12 12 12 12 12 13
12 12 13 13 12 12 12 12 12 12 12 12 13 13 14 14 14 14 13 13 13 13 13 13 13 13 13 12 12 12 12 12 11 12 12 12 12 12 12 12 12 12
12 12 12 12 12 12 12 12 12 12 12 13 13 13 14 14 14 14 13 13 13 13 13 13 13 13 12 12 12 12 11 11 11 11 11 11 11 11 12 12 12 12
12 12 12 12 12 12 12 12 13 13 13 13 13 14 14 14 14 13 13 13 13 12 12 12 12 12 12 11 11 11 11 11 11 11 11 11 11 11 11 11 12 12
12 12 12 12 12 12 12 13 13 13 13 13 13 14 14 14 13 13 12 12 12 12 11 12 11 11 11 11 11 11 11 11 11 11 11 11 11 11 11 11 11 11
11 12 12 12 13 13 13 13 13 13 13 13 13 13 13 13 13 12 12 11 11 11 11 12 12 11 11 10 10 11 12 11 11 11 11 11 11 11 11 11 11 11
12 12 12 12 13 13 12 12 12 13 13 13 13 13 13 12 12 12 11 11 11 11 11 12 12 11 11 11 11 11 11 11 11 11 11 11 11 11 11 11 10 10
11 12 12 12 12 12 11 11 12 12 13 13 13 13 13 12 11 11 11 11 11 11 11 11 11 11 11 12 11 11 11 11 11 11 11 11 11 11 11 10 10 10
11 11 11 11 11 11 11 11 11 11 12 12 12 12 12 12 11 11 11 11 11 11 11 11 11 11 11 11 11 11 11 11 11 11 11 11 11 10 10 10 10 10
11 11 11 11 11 11 11 11 11 11 11 12 12 12 11 11 11 11 11 11 11 11 11 11 11 11 11 11 11 11 11 11 10 11 11 10 10 10 10 10 10 10
11 11 11 11 11 11 11 11 11 11 11 11 11 11 11 11 11 11 11 11 11 11 11 11 11 11 11 11 11 11 10 10 10 10 10 10 10 10 10 10 9 10
11 11 11 11 11 11 11 11 11 11 11 11 11 11 11 11 11 11 11 11 11 11 11 11 11 11 11 11 11 10 10 10 10 10 10 10 10 10 10 9 9 9
11 11 11 11 11 11 11 11 11 11 11 11 11 11 11 11 11 11 11 11 11 11 11 11 11 11 11 10 10 10 10 10 10 10 10 10 10 10 10 10 10 10
11 11 11 11 11 11 11 11 11 11 11 11 11 11 11 11 11 11 11 11 11 11 11 11 11 11 10 10 10 10 10 10 10 9 10 10 10 10 10 10 10 10
11 11 11 11 10 10 10 10 10 10 10 10 11 11 10 10 11 11 11 11 11 10 10 10 10 10 10 10 10 10 9 9 10 9 9 9 9 9 9 9 9 9
11 11 11 11 10 10 10 10 10 10 11 11 11 10 10 10 10 10 10 10 10 10 10 10 10 10 10 10 10 9 9 9 9 9 9 9 9 9 9 9 9 9
9 10 10 10 10 10 10 10 10 10 10 10 10 10 10 10 10 10 10 10 10 10 10 10 10 10 10 9 9 9 9 9 9 9 9 9 9 9 9 9 9 9
9 9 10 10 10 10 10 10 10 10 10 10 10 10 10 10 10 10 10 10 10 10 10 10 10 9 9 9 9 9 10 9 9 9 9 9 9 9 9 9 9 9
9 9 9 9 9 10 10 10 10 10 10 10 10 10 10 10 10 10 10 10 10 10 10 10 10 9 9 9 9 9 10 9 9 8 8 9 9 9 9 9 9 9
10 10 9 9 9 9 10 10 10 10 10 10 10 10 10 10 10 10 10 10 10 10 10 9 9 9 9 9 9 9 9 9 8 8 8 9 9 9 9 9 9 9
10 10 10 10 9 9 9 9 9 9 10 10 10 10 10 10 10 10 10 10 10 10 10 9 9 9 9 9 9 9 9 9 8 8 8 8 9 9 9 9 9 9
Height
1524 1525 1526 1527 1529 1531 1533 1535 1536 1538 1538 1539 1540 1542 1543 1544 1546 1547 1548 1549 1550 1552 1553 1554 1555 1555 1555 1555 1556 1557 1558 1559 1560 1561 1561 1561 1561 1561 1561 1561 1562 1562
1524 1526 1527 1528 1529 1531 1533 1535 1536 1538 1539 1540 1541 1542 1543 1545 1546 1547 1548 1550 1551 1552 1553 1554 1554 1555 1555 1556 1557 1558 1559 1560 1561 1562 1562 1562 1562 1562 1562 1562 1563 1563
1524 1525 1527 1529 1530 1531 1533 1535 1537 1538 1539 1540 1541 1542 1543 1545 1546 1547 1549 1550 1551 1552 1553 1554 1555 1555 1556 1557 1558 1559 1560 1562 1563 1563 1564 1564 1564 1563 1563 1563 1564 1564
1524 1526 1527 1529 1531 1532 1534 1535 1537 1538 1539 1540 1541 1543 1543 1545 1546 1548 1549 1551 1552 1552 1553 1554 1555 1556 1557 1558 1559 1560 1561 1563 1564 1565 1565 1565 1565 1565 1564 1565 1565 1565
1525 1526 1528 1530 1531 1533 1535 1536 1537 1538 1539 1540 1542 1543 1544 1545 1546 1548 1549 1551 1552 1553 1554 1555 1556 1556 1557 1558 1559 1561 1562 1563 1565 1566 1566 1566 1566 1566 1566 1566 1566 1566
1525 1527 1529 1530 1532 1534 1535 1537 1538 1539 1540 1541 1542 1543 1544 1545 1547 1548 1549 1551 1552 1554 1554 1555 1556 1557 1558 1559 1560 1561 1563 1564 1565 1566 1567 1567 1567 1567 1567 1567 1567 1566
1526 1528 1529 1531 1532 1534 1536 1537 1538 1539 1540 1541 1542 1543 1544 1545 1547 1548 1549 1551 1552 1554 1555 1556 1557 1558 1559 1560 1561 1562 1563 1564 1565 1566 1567 1567 1567 1567 1567 1567 1567 1567
1526 1529 1530 1531 1533 1534 1536 1537 1538 1539 1540 1541 1542 1543 1544 1545 1546 1547 1549 1551 1552 1554 1555 1557 1558 1559 1559 1560 1561 1562 1563 1564 1565 1566 1566 1566 1567 1567 1567 1567 1567 1567
1526 1528 1530 1532 1533 1535 1536 1537 1538 1538 1540 1541 1542 1543 1544 1545 1546 1547 1548 1550 1552 1553 1555 1557 1558 1559 1559 1560 1561 1562 1563 1563 1564 1565 1565 1565 1565 1566 1566 1566 1566 1566
1526 1528 1529 1532 1533 1534 1535 1536 1538 1538 1540 1541 1542 1543 1544 1545 1545 1546 1548 1550 1551 1553 1554 1556 1557 1557 1558 1559 1560 1561 1561 1562 1563 1563 1564 1564 1564 1564 1564 1565 1565 1565
1526 1527 1529 1531 1533 1534 1535 1537 1538 1538 1540 1541 1542 1543 1544 1544 1545 1546 1548 1549 1550 1552 1553 1554 1555 1556 1556 1557 1559 1560 1560 1561 1562 1562 1563 1563 1563 1563 1563 1564 1564 1564
1523 1526 1528 1531 1533 1533 1534 1536 1537 1538 1540 1541 1542 1543 1544 1545 1545 1546 1547 1548 1549 1551 1552 1553 1555 1555 1556 1556 1557 1558 1559 1560 1561 1561 1561 1562 1562 1562 1562 1563 1563 1563
1523 1526 1528 1530 1531 1532 1534 1536 1537 1538 1539 1541 1542 1543 1544 1544 1544 1545 1546 1547 1549 1550 1551 1553 1554 1555 1555 1555 1555 1556 1557 1558 1558 1559 1559 1560 1560 1560 1561 1561 1561 1561
1523 1526 1527 1529 1530 1532 1534 1536 1537 1538 1539 1540 1541 1542 1543 1543 1543 1544 1545 1546 1548 1549 1551 1552 1553 1554 1554 1554 1553 1555 1556 1556 1556 1557 1557 1557 1557 1558 1558 1559 1559 1559
1522 1524 1526 1528 1530 1531 1532 1534 1537 1538 1538 1539 1540 1541 1541 1541 1542 1543 1544 1545 1547 1549 1550 1551 1552 1553 1553 1552 1552 1553 1554 1554 1554 1554 1554 1554 1554 1554 1556 1557 1557 1557
1521 1523 1524 1526 1528 1529 1530 1532 1535 1537 1537 1538 1539 1540 1540 1540 1541 1542 1543 1545 1546 1547 1549 1550 1551 1551 1551 1551 1551 1551 1552 1552 1552 1552 1552 1551 1551 1551 1552 1554 1555 1556
1521 1522 1524 1526 1527 1528 1530 1532 1534 1535 1536 1538 1538 1539 1540 1539 1540 1541 1542 1544 1545 1546 1548 1548 1549 1549 1549 1549 1549 1549 1550 1550 1550 1550 1550 1549 1548 1549 1550 1552 1553 1554
1520 1522 1523 1526 1527 1528 1530 1531 1533 1535 1536 1537 1538 1538 1539 1539 1539 1540 1542 1543 1545 1546 1546 1547 1547 1547 1547 1547 1547 1547 1548 1548 1548 1548 1548 1548 1548 1548 1549 1551 1552 1553
1520 1521 1523 1525 1526 1527 1529 1530 1532 1534 1536 1536 1537 1537 1538 1538 1539 1540 1541 1542 1543 1544 1544 1545 1545 1545 1545 1545 1545 1545 1546 1546 1547 1547 1547 1548 1548 1548 1549 1550 1551 1552
1521 1522 1523 1524 1526 1527 1528 1529 1531 1533 1534 1535 1535 1535 1536 1537 1538 1539 1540 1541 1541 1542 1542 1543 1543 1543 1542 1543 1543 1543 1544 1545 1546 1546 1547 1547 1547 1548 1548 1549 1550 1551
1523 1525 1526 1526 1527 1528 1529 1529 1530 1531 1532 1532 1532 1533 1534 1535 1536 1537 1538 1539 1540 1540 1540 1540 1540 1540 1540 1541 1541 1542 1543 1544 1545 1545 1546 1546 1546 1547 1547 1548 1549 1550
1524 1526 1528 1528 1529 1529 1529 1530 1530 1530 1530 1531 1531 1531 1532 1533 1534 1536 1537 1537 1538 1538 1538 1538 1538 1538 1539 1540 1541 1542 1543 1544 1544 1544 1545 1546 1546 1547 1547 1548 1549 1550
1526 1527 1528 1529 1530 1530 1530 1530 1530 1530 1530 1530 1530 1531 1532 1532 1533 1534 1535 1536 1536 1536 1536 1536 1537 1537 1538 1539 1540 1541 1542 1543 1543 1543 1544 1545 1546 1546 1547 1547 1548 1549
1526 1528 1529 1530 1530 1531 1530 1530 1530 1530 1530 1530 1530 1531 1531 1531 1532 1533 1534 1534 1534 1535 1535 1535 1536 1537 1537 1538 1540 1540 1541 1542 1542 1542 1543 1544 1545 1546 1546 1547 1548 1549
1525 1527 1528 1529 1530 1531 1531 1532 1531 1531 1531 1531 1531 1531 1531 1531 1531 1531 1532 1533 1534 1534 1535 1535 1536 1536 1537 1538 1538 1539 1540 1541 1541 1541 1542 1544 1544 1545 1545 1546 1547 1548
1524 1525 1526 1527 1529 1530 1531 1532 1532 1531 1531 1531 1530 1531 1531 1531 1531 1531 1531 1532 1533 1533 1534 1534 1535 1535 1536 1537 1537 1539 1540 1540 1541 1541 1541 1542 1543 1544 1544 1545 1546 1547
Wind_Speed
17 16 16 16 17 17 18 17 14 12 10 10 11 12 12 10 10 10 11 12 12 13 15 15 13 10 9 11 11 12 12 13 15 14 13 13 14 13 14 15 16 16
17 15 15 16 17 18 18 16 14 12 11 10 11 12 11 9 10 10 11 12 13 13 14 13 12 10 10 12 12 12 11 11 13 14 14 14 13 13 14 16 17 17
18 16 16 17 17 18 17 15 14 12 12 11 11 11 11 11 12 13 13 14 14 14 14 14 14 14 15 15 15 15 14 14 14 14 13 13 12 14 16 16 16 16
19 17 17 16 17 18 17 16 16 15 13 12 12 12 12 13 14 15 16 15 16 17 17 16 17 17 17 17 17 17 17 17 16 15 15 14 14 15 17 17 17 16
18 17 16 16 17 18 16 16 17 16 14 13 13 14 14 15 15 16 17 16 16 17 17 17 17 17 17 16 16 17 17 16 16 15 15 15 14 15 15 15 16 17
17 17 17 16 17 18 17 17 18 16 15 14 14 15 16 16 16 17 16 16 15 16 16 16 16 16 15 15 15 15 14 14 13 12 12 12 12 13 13 12 11 13
18 17 18 18 17 18 18 19 18 16 15 14 14 16 17 16 17 17 16 15 15 14 14 13 13 13 13 12 13 13 13 11 9 8 8 9 9 9 10 10 10 11
20 17 18 19 19 18 18 19 18 16 15 15 15 17 17 17 17 16 16 15 14 13 12 11 10 10 10 10 9 10 13 12 7 5 6 7 7 7 6 6 7 9
20 17 17 17 17 17 17 18 17 15 14 14 15 16 16 16 16 16 15 14 13 12 11 9 9 9 8 7 6 8 12 13 9 7 7 7 7 7 6 5 5 7
17 17 17 14 13 13 15 16 16 15 15 14 14 16 16 15 15 15 14 12 11 10 9 8 8 9 8 7 6 8 12 12 10 8 8 9 9 7 6 5 5 6
19 19 17 14 14 13 14 15 15 15 15 14 13 15 16 15 14 14 13 11 11 10 9 8 8 9 9 8 8 8 9 9 7 6 6 8 8 8 7 6 5 6
25 22 18 16 16 15 15 15 13 12 13 13 13 13 14 13 12 11 12 13 12 12 11 10 10 10 9 8 8 8 7 6 5 4 5 6 7 8 9 8 7 7
25 22 19 17 17 17 16 15 13 12 12 12 13 13 13 13 11 10 12 14 13 12 13 13 12 12 11 10 10 9 8 7 6 6 7 7 7 8 9 10 9 8
22 21 20 20 21 21 18 15 13 11 11 13 14 14 13 14 14 13 13 13 13 13 13 13 12 11 11 11 12 12 10 9 7 7 8 9 9 9 9 10 9 9
21 21 20 20 21 20 18 16 14 12 11 13 15 15 15 16 16 16 15 15 15 14 15 14 13 11 11 11 13 13 12 10 8 8 9 10 11 11 10 10 10 10
21 22 21 19 19 20 20 19 17 15 15 16 17 17 17 18 18 17 17 17 17 17 17 16 14 14 12 11 12 13 12 11 10 9 9 10 11 10 9 10 10 10
18 19 18 17 17 19 20 20 20 20 20 20 19 19 19 19 19 19 18 18 18 19 18 17 15 15 14 12 11 13 13 12 10 7 6 7 7 9 9 10 11 10
13 16 17 16 16 17 18 20 21 21 22 23 22 21 21 21 21 20 19 18 19 19 19 17 15 14 13 12 11 12 12 10 8 7 7 7 9 10 10 10 10 9
11 13 14 15 15 16 17 19 21 22 24 24 23 22 23 23 22 21 20 19 20 20 19 18 16 15 14 12 11 11 9 8 9 10 10 10 11 11 11 11 10 9
10 10 10 11 12 13 15 16 19 22 23 23 23 22 22 22 21 20 18 18 19 20 19 18 17 17 14 11 10 10 10 12 13 13 13 13 13 12 12 13 12 10
10 10 10 10 10 9 11 12 13 16 17 18 18 18 18 19 19 18 18 18 19 19 18 18 17 15 11 9 11 13 15 15 14 13 14 13 13 12 12 12 12 11
10 10 10 10 9 7 8 9 10 11 12 12 13 14 16 17 17 17 17 16 16 16 15 14 13 11 11 12 13 14 14 14 14 14 15 15 14 13 13 12 12 11
10 9 9 9 9 7 6 6 7 9 9 10 11 12 13 14 14 13 13 12 11 11 11 11 12 13 13 13 14 13 13 14 16 18 18 18 18 18 17 15 14 13
16 13 11 9 7 6 5 5 6 6 6 7 8 9 9 9 9 9 9 9 9 10 11 11 11 13 13 13 12 12 14 17 18 19 18 17 17 18 17 15 14 14
15 14 13 12 9 6 4 4 4 4 4 5 5 4 5 5 6 7 8 8 9 11 11 11 11 12 13 12 12 14 17 19 19 18 18 16 14 13 12 12 12 12
10 8 8 9 8 7 6 5 4 3 3 5 4 3 4 5 6 7 9 9 10 11 11 10 11 12 12 13 15 16 18 19 18 17 18 18 14 12 11 11 11 11
Wind_Direction
174 175 169 164 165 167 167 171 177 178 174 162 152 152 152 149 144 138 134 135 136 137 140 139 135 130 117 112 113 112 111 107 108 120 132 131 128 132 133 132 134 127
177 181 173 168 167 166 166 172 180 181 173 163 158 156 150 140 134 131 128 130 132 134 138 140 140 129 114 115 118 115 114 114 112 117 125 126 122 119 121 128 134 127
180 186 178 174 170 165 168 176 180 179 175 169 167 158 144 133 129 125 122 122 123 124 124 123 119 113 108 109 109 109 108 107 107 111 116 119 114 105 105 118 130 132
181 186 178 173 169 166 172 177 177 180 180 173 166 155 142 135 130 125 122 122 121 120 117 114 111 108 108 107 107 107 106 103 104 106 106 105 101 98 100 106 112 119
179 178 173 171 168 171 178 179 180 186 183 173 164 156 146 140 134 129 127 127 125 121 119 116 114 111 110 110 109 109 110 110 111 111 110 107 104 102 101 102 101 105
175 172 172 175 175 177 179 178 184 192 187 177 167 159 151 145 140 135 134 134 131 127 124 123 121 120 119 117 114 113 113 113 111 110 114 115 112 112 112 111 106 105
175 177 179 181 182 182 180 180 186 193 192 184 173 164 157 153 148 143 142 141 137 133 131 130 129 128 128 126 122 120 117 112 106 104 112 115 111 113 122 122 113 112
178 178 178 181 183 183 184 188 190 193 195 190 179 170 164 160 156 151 150 148 145 143 141 140 140 138 137 136 133 129 126 123 121 121 120 116 109 114 128 123 113 121
182 179 179 182 186 191 195 197 198 201 202 194 185 178 171 168 163 158 156 153 151 148 143 141 139 138 142 145 142 142 141 141 146 154 151 145 137 131 134 136 132 136
189 188 189 191 193 198 201 200 200 207 211 204 194 186 180 176 171 165 159 153 150 145 138 141 143 143 149 157 158 158 159 159 161 166 167 162 158 157 161 176 174 158
197 196 198 198 198 201 203 203 203 209 212 209 202 194 186 181 176 170 163 158 158 158 162 169 169 169 172 176 178 177 174 174 172 176 180 173 173 183 194 203 201 186
199 200 204 202 200 204 203 199 199 207 212 210 204 199 191 184 180 173 173 175 175 176 186 192 192 197 199 193 195 199 198 203 212 225 219 203 203 212 213 214 216 211
205 208 211 206 199 197 197 195 193 197 205 207 206 202 194 188 187 185 183 186 187 190 200 208 209 208 208 211 216 215 218 231 246 255 247 236 236 238 232 229 228 222
210 211 211 205 192 186 190 195 193 194 198 202 203 203 197 192 192 193 191 192 198 204 213 222 223 215 214 223 226 222 226 240 249 255 255 254 253 250 245 240 231 221
209 210 211 206 195 191 197 197 192 193 197 200 201 201 199 198 199 201 201 203 209 216 225 232 233 230 231 234 230 227 229 233 243 254 256 255 252 248 246 238 223 213
208 210 211 209 206 205 205 201 199 200 201 203 203 201 203 206 209 209 208 210 215 222 230 236 238 239 243 240 230 228 227 229 245 258 256 251 243 233 227 216 202 201
207 209 208 208 209 208 206 206 206 201 201 205 206 206 209 212 214 217 217 217 221 227 232 238 242 243 247 244 236 232 232 239 253 251 232 224 206 190 190 188 186 191
190 197 200 200 200 202 206 210 207 203 205 211 212 212 215 217 219 222 225 228 230 232 236 241 242 242 247 249 243 240 240 242 235 206 178 163 157 159 162 164 170 175
165 179 192 198 198 198 204 208 208 207 211 216 219 219 219 222 225 227 232 237 236 236 240 242 241 244 252 253 246 240 230 206 187 170 154 144 144 147 147 149 154 155
155 162 174 187 193 197 202 207 209 209 211 217 223 224 224 227 232 235 238 238 237 237 240 241 245 252 256 246 229 213 188 173 170 164 155 150 148 150 155 159 159 157
122 133 148 165 174 183 191 196 201 205 209 214 220 225 228 231 233 236 237 236 237 239 240 241 245 245 234 209 190 181 174 170 169 167 166 165 164 168 175 177 174 174
111 124 133 141 149 159 174 183 190 195 198 203 212 218 224 227 228 229 231 232 235 236 233 230 225 209 192 178 172 175 179 177 174 176 178 178 178 182 186 189 188 187
97 123 133 131 133 135 143 164 181 190 194 199 205 211 216 220 222 222 220 218 219 215 204 197 190 181 176 176 178 187 194 190 186 188 190 189 190 193 196 198 198 198
93 102 111 120 131 131 122 128 146 164 178 187 196 204 209 211 211 211 206 198 194 192 185 182 185 184 184 189 194 197 193 184 183 190 196 198 197 197 201 206 207 207
109 106 102 108 118 127 133 136 130 134 154 167 171 184 195 201 213 221 216 201 190 190 192 196 200 201 203 203 197 191 186 181 183 194 202 205 204 204 209 213 212 211
123 123 116 116 118 120 133 151 153 138 167 183 186 214 235 238 241 242 240 231 217 214 219 221 215 209 207 200 189 184 187 188 192 202 206 207 211 217 220 213 204 202